This is the latest recevied weather packets stored in our database for station/object N0MR. If no packets are shown the sender has not sent any weather packets the latest 10 day(s).
| Time | Temp. | Humidity | Pressure | Rain* | Wind** | Luminosity | Snow |
|---|---|---|---|---|---|---|---|
| 1777523525 | 1.11° C | 85% | 1018.2 hPa | 0 mm | - | - | - |
| 1777522924 | 1.11° C | 85% | 1018.2 hPa | 0 mm | - | - | - |
| 1777522325 | 1.11° C | 85% | 1018.3 hPa | 0 mm | - | - | - |
| 1777521725 | 1.11° C | 85% | 1018.3 hPa | 0 mm | - | - | - |
| 1777521126 | 1.11° C | 84% | 1018.4 hPa | 0 mm | - | - | - |
| 1777520527 | 1.11° C | 83% | 1018.5 hPa | 0 mm | - | - | - |
| 1777519924 | 1.11° C | 83% | 1018.5 hPa | 0 mm | - | - | - |
| 1777518724 | 1.67° C | 83% | 1018.4 hPa | 0 mm | - | - | - |
| 1777518124 | 1.67° C | 82% | 1018.4 hPa | 0 mm | - | - | - |
| 1777517525 | 1.67° C | 82% | 1018.4 hPa | 0 mm | - | - | - |
| 1777516925 | 1.67° C | 82% | 1018.2 hPa | 0 mm | - | - | - |
| 1777516327 | 1.67° C | 82% | 1018.2 hPa | 0 mm | - | - | - |
| 1777515724 | 1.67° C | 82% | 1018.1 hPa | 0 mm | - | - | - |
| 1777515124 | 1.67° C | 82% | 1018.1 hPa | 0 mm | - | - | - |
| 1777514524 | 1.67° C | 81% | 1018 hPa | 0 mm | - | - | - |
| 1777513924 | 1.67° C | 81% | 1018 hPa | 0 mm | - | - | - |
| 1777513325 | 2.22° C | 79% | 1017.9 hPa | 0 mm | - | - | - |
| 1777512728 | 2.22° C | 79% | 1017.9 hPa | 0 mm | - | - | - |
| 1777512126 | 2.78° C | 76% | 1017.9 hPa | 0 mm | - | - | - |
| 1777511525 | 2.78° C | 76% | 1017.9 hPa | 0 mm | - | - | - |
| 1777510926 | 3.33° C | 71% | 1017.6 hPa | 0 mm | - | - | - |
| 1777510326 | 3.33° C | 71% | 1017.6 hPa | 0 mm | - | - | - |
| 1777509726 | 4.44° C | 63% | 1017.6 hPa | 0 mm | - | - | - |
| 1777509125 | 4.44° C | 59% | 1017.3 hPa | 0 mm | - | - | - |
| 1777508525 | 4.44° C | 59% | 1017.3 hPa | 0 mm | - | - | - |
* Rain latest hour (hover to see other rain measurements)
** Current wind speed in m/s (hover to see current wind gust speed)